#datetime,building,power
2023-01-19T00:00:00,mfh,44.62
2023-01-19T00:01:00,mfh,44.39
2023-01-19T00:02:00,mfh,43.68
2023-01-19T00:03:00,mfh,43.76
2023-01-19T00:04:00,mfh,43.00
2023-01-19T00:05:00,mfh,42.96
2023-01-19T00:06:00,mfh,43.05
2023-01-19T00:07:00,mfh,44.24
2023-01-19T00:08:00,mfh,43.84
2023-01-19T00:09:00,mfh,43.97
2023-01-19T00:10:00,mfh,43.86
2023-01-19T00:11:00,mfh,43.89
2023-01-19T00:12:00,mfh,44.22
2023-01-19T00:13:00,mfh,43.63
2023-01-19T00:14:00,mfh,43.58
2023-01-19T00:15:00,mfh,43.66
2023-01-19T00:16:00,mfh,44.36
2023-01-19T00:17:00,mfh,44.17
2023-01-19T00:18:00,mfh,46.07
2023-01-19T00:19:00,mfh,47.00
2023-01-19T00:20:00,mfh,45.79
2023-01-19T00:21:00,mfh,45.78
2023-01-19T00:22:00,mfh,45.22
2023-01-19T00:23:00,mfh,45.23
2023-01-19T00:24:00,mfh,45.11
2023-01-19T00:25:00,mfh,45.75
2023-01-19T00:26:00,mfh,46.37
2023-01-19T00:27:00,mfh,45.89
2023-01-19T00:28:00,mfh,46.62
2023-01-19T00:29:00,mfh,45.80
2023-01-19T00:30:00,mfh,45.97
2023-01-19T00:31:00,mfh,45.58
2023-01-19T00:32:00,mfh,45.53
2023-01-19T00:33:00,mfh,45.86
2023-01-19T00:34:00,mfh,45.41
2023-01-19T00:35:00,mfh,45.31
2023-01-19T00:36:00,mfh,43.24
2023-01-19T00:37:00,mfh,43.27
2023-01-19T00:38:00,mfh,43.13
2023-01-19T00:39:00,mfh,43.25
2023-01-19T00:40:00,mfh,42.41
2023-01-19T00:41:00,mfh,42.43
2023-01-19T00:42:00,mfh,42.48
2023-01-19T00:43:00,mfh,43.70
2023-01-19T00:44:00,mfh,43.34
2023-01-19T00:45:00,mfh,44.45
2023-01-19T00:46:00,mfh,44.24
2023-01-19T00:47:00,mfh,43.53
2023-01-19T00:48:00,mfh,43.42
2023-01-19T00:49:00,mfh,42.77
2023-01-19T00:50:00,mfh,43.11
2023-01-19T00:51:00,mfh,42.50
2023-01-19T00:52:00,mfh,43.30
2023-01-19T00:53:00,mfh,43.33
2023-01-19T00:54:00,mfh,43.43
2023-01-19T00:55:00,mfh,43.93
2023-01-19T00:56:00,mfh,43.39
2023-01-19T00:57:00,mfh,43.48
2023-01-19T00:58:00,mfh,43.04
2023-01-19T00:59:00,mfh,43.03
2023-01-19T01:00:00,mfh,43.03
2023-01-19T01:01:00,mfh,43.61
2023-01-19T01:02:00,mfh,43.67
2023-01-19T01:03:00,mfh,43.88
2023-01-19T01:04:00,mfh,43.87
2023-01-19T01:05:00,mfh,43.84
2023-01-19T01:06:00,mfh,43.64
2023-01-19T01:07:00,mfh,42.93
2023-01-19T01:08:00,mfh,42.89
2023-01-19T01:09:00,mfh,43.22
2023-01-19T01:10:00,mfh,45.04
2023-01-19T01:11:00,mfh,45.17
2023-01-19T01:12:00,mfh,45.53
2023-01-19T01:13:00,mfh,44.98
2023-01-19T01:14:00,mfh,44.97
2023-01-19T01:15:00,mfh,43.99
2023-01-19T01:16:00,mfh,42.59
2023-01-19T01:17:00,mfh,42.60
2023-01-19T01:18:00,mfh,43.04
2023-01-19T01:19:00,mfh,43.41
2023-01-19T01:20:00,mfh,43.52
2023-01-19T01:21:00,mfh,43.83
2023-01-19T01:22:00,mfh,43.52
2023-01-19T01:23:00,mfh,43.55
2023-01-19T01:24:00,mfh,44.16
2023-01-19T01:25:00,mfh,42.72
2023-01-19T01:26:00,mfh,42.73
2023-01-19T01:27:00,mfh,42.84
2023-01-19T01:28:00,mfh,43.38
2023-01-19T01:29:00,mfh,43.32
2023-01-19T01:30:00,mfh,43.43
2023-01-19T01:31:00,mfh,43.43
2023-01-19T01:32:00,mfh,43.44
2023-01-19T01:33:00,mfh,43.38
2023-01-19T01:34:00,mfh,43.33
2023-01-19T01:35:00,mfh,42.82
2023-01-19T01:36:00,mfh,42.94
2023-01-19T01:37:00,mfh,43.19
2023-01-19T01:38:00,mfh,43.66
2023-01-19T01:39:00,mfh,43.81
2023-01-19T01:40:00,mfh,43.95
2023-01-19T01:41:00,mfh,44.23
2023-01-19T01:42:00,mfh,46.18
2023-01-19T01:43:00,mfh,45.19
2023-01-19T01:44:00,mfh,45.04
2023-01-19T01:45:00,mfh,45.10
2023-01-19T01:46:00,mfh,45.48
2023-01-19T01:47:00,mfh,46.16
2023-01-19T01:48:00,mfh,45.45
2023-01-19T01:49:00,mfh,45.24
2023-01-19T01:50:00,mfh,45.82
2023-01-19T01:51:00,mfh,45.25
2023-01-19T01:52:00,mfh,44.62
2023-01-19T01:53:00,mfh,44.70
2023-01-19T01:54:00,mfh,44.55
2023-01-19T01:55:00,mfh,45.18
2023-01-19T01:56:00,mfh,45.88
2023-01-19T01:57:00,mfh,45.87
2023-01-19T01:58:00,mfh,45.85
2023-01-19T01:59:00,mfh,46.02
2023-01-19T02:00:00,mfh,45.31
2023-01-19T02:01:00,mfh,43.33
2023-01-19T02:02:00,mfh,43.36
2023-01-19T02:03:00,mfh,42.86
2023-01-19T02:04:00,mfh,42.85
2023-01-19T02:05:00,mfh,43.49
2023-01-19T02:06:00,mfh,43.57
2023-01-19T02:07:00,mfh,43.58
2023-01-19T02:08:00,mfh,43.57
2023-01-19T02:09:00,mfh,43.55
2023-01-19T02:10:00,mfh,43.60
2023-01-19T02:11:00,mfh,43.14
2023-01-19T02:12:00,mfh,43.10
2023-01-19T02:13:00,mfh,43.01
2023-01-19T02:14:00,mfh,43.67
2023-01-19T02:15:00,mfh,43.68
2023-01-19T02:16:00,mfh,43.58
2023-01-19T02:17:00,mfh,43.53
2023-01-19T02:18:00,mfh,44.01
2023-01-19T02:19:00,mfh,43.00
2023-01-19T02:20:00,mfh,42.64
2023-01-19T02:21:00,mfh,42.64
2023-01-19T02:22:00,mfh,43.26
2023-01-19T02:23:00,mfh,43.28
2023-01-19T02:24:00,mfh,43.23
2023-01-19T02:25:00,mfh,43.59
2023-01-19T02:26:00,mfh,44.42
2023-01-19T02:27:00,mfh,43.64
2023-01-19T02:28:00,mfh,44.14
2023-01-19T02:29:00,mfh,43.56
2023-01-19T02:30:00,mfh,43.11
2023-01-19T02:31:00,mfh,43.18
2023-01-19T02:32:00,mfh,43.87
2023-01-19T02:33:00,mfh,43.67
2023-01-19T02:34:00,mfh,43.65
2023-01-19T02:35:00,mfh,43.61
2023-01-19T02:36:00,mfh,43.66
2023-01-19T02:37:00,mfh,43.76
2023-01-19T02:38:00,mfh,43.08
2023-01-19T02:39:00,mfh,42.93
2023-01-19T02:40:00,mfh,42.95
2023-01-19T02:41:00,mfh,43.49
2023-01-19T02:42:00,mfh,43.41
2023-01-19T02:43:00,mfh,43.87
2023-01-19T02:44:00,mfh,43.71
2023-01-19T02:45:00,mfh,43.83
2023-01-19T02:46:00,mfh,43.72
2023-01-19T02:47:00,mfh,42.90
2023-01-19T02:48:00,mfh,43.06
2023-01-19T02:49:00,mfh,42.97
2023-01-19T02:50:00,mfh,43.59
2023-01-19T02:51:00,mfh,43.45
2023-01-19T02:52:00,mfh,43.68
2023-01-19T02:53:00,mfh,43.75
2023-01-19T02:54:00,mfh,43.40
2023-01-19T02:55:00,mfh,44.06
2023-01-19T02:56:00,mfh,42.73
2023-01-19T02:57:00,mfh,43.31
2023-01-19T02:58:00,mfh,44.79
2023-01-19T02:59:00,mfh,45.39
2023-01-19T03:00:00,mfh,45.47
2023-01-19T03:01:00,mfh,45.56
2023-01-19T03:02:00,mfh,45.59
2023-01-19T03:03:00,mfh,45.59
2023-01-19T03:04:00,mfh,45.61
2023-01-19T03:05:00,mfh,45.01
2023-01-19T03:06:00,mfh,45.09
2023-01-19T03:07:00,mfh,45.00
2023-01-19T03:08:00,mfh,45.79
2023-01-19T03:09:00,mfh,45.75
2023-01-19T03:10:00,mfh,45.71
2023-01-19T03:11:00,mfh,45.65
2023-01-19T03:12:00,mfh,45.66
2023-01-19T03:13:00,mfh,45.71
2023-01-19T03:14:00,mfh,45.01
2023-01-19T03:15:00,mfh,44.83
2023-01-19T03:16:00,mfh,45.28
2023-01-19T03:17:00,mfh,45.96
2023-01-19T03:18:00,mfh,44.32
2023-01-19T03:19:00,mfh,44.28
2023-01-19T03:20:00,mfh,52.08
2023-01-19T03:21:00,mfh,53.07
2023-01-19T03:22:00,mfh,53.45
2023-01-19T03:23:00,mfh,53.47
2023-01-19T03:24:00,mfh,52.82
2023-01-19T03:25:00,mfh,52.75
2023-01-19T03:26:00,mfh,54.55
2023-01-19T03:27:00,mfh,53.31
2023-01-19T03:28:00,mfh,53.29
2023-01-19T03:29:00,mfh,53.40
2023-01-19T03:30:00,mfh,53.30
2023-01-19T03:31:00,mfh,53.29
2023-01-19T03:32:00,mfh,52.55
2023-01-19T03:33:00,mfh,52.92
2023-01-19T03:34:00,mfh,52.95
2023-01-19T03:35:00,mfh,53.37
2023-01-19T03:36:00,mfh,53.78
2023-01-19T03:37:00,mfh,53.41
2023-01-19T03:38:00,mfh,53.38
2023-01-19T03:39:00,mfh,53.65
2023-01-19T03:40:00,mfh,53.39
2023-01-19T03:41:00,mfh,52.71
2023-01-19T03:42:00,mfh,52.60
2023-01-19T03:43:00,mfh,52.68
2023-01-19T03:44:00,mfh,53.27
2023-01-19T03:45:00,mfh,53.22
2023-01-19T03:46:00,mfh,53.25
2023-01-19T03:47:00,mfh,53.90
2023-01-19T03:48:00,mfh,53.91
2023-01-19T03:49:00,mfh,54.05
2023-01-19T03:50:00,mfh,53.31
2023-01-19T03:51:00,mfh,53.46
2023-01-19T03:52:00,mfh,53.45
2023-01-19T03:53:00,mfh,54.23
2023-01-19T03:54:00,mfh,53.94
2023-01-19T03:55:00,mfh,53.93
2023-01-19T03:56:00,mfh,53.78
2023-01-19T03:57:00,mfh,54.23
2023-01-19T03:58:00,mfh,53.75
2023-01-19T03:59:00,mfh,53.71
2023-01-19T04:00:00,mfh,53.10
2023-01-19T04:01:00,mfh,53.15
2023-01-19T04:02:00,mfh,54.52
2023-01-19T04:03:00,mfh,55.19
2023-01-19T04:04:00,mfh,55.21
2023-01-19T04:05:00,mfh,55.40
2023-01-19T04:06:00,mfh,55.55
2023-01-19T04:07:00,mfh,53.66
2023-01-19T04:08:00,mfh,53.73
2023-01-19T04:09:00,mfh,53.72
2023-01-19T04:10:00,mfh,53.65
2023-01-19T04:11:00,mfh,54.18
2023-01-19T04:12:00,mfh,57.78
2023-01-19T04:13:00,mfh,55.13
2023-01-19T04:14:00,mfh,55.13
2023-01-19T04:15:00,mfh,55.88
2023-01-19T04:16:00,mfh,55.70
2023-01-19T04:17:00,mfh,54.48
2023-01-19T04:18:00,mfh,54.46
2023-01-19T04:19:00,mfh,54.44
2023-01-19T04:20:00,mfh,54.34
2023-01-19T04:21:00,mfh,55.24
2023-01-19T04:22:00,mfh,55.33
2023-01-19T04:23:00,mfh,54.98
2023-01-19T04:24:00,mfh,54.97
2023-01-19T04:25:00,mfh,54.98
2023-01-19T04:26:00,mfh,54.97
2023-01-19T04:27:00,mfh,54.32
2023-01-19T04:28:00,mfh,54.32
2023-01-19T04:29:00,mfh,54.70
2023-01-19T04:30:00,mfh,55.27
2023-01-19T04:31:00,mfh,55.24
2023-01-19T04:32:00,mfh,55.35
2023-01-19T04:33:00,mfh,53.49
2023-01-19T04:34:00,mfh,53.47
2023-01-19T04:35:00,mfh,52.70
2023-01-19T04:36:00,mfh,52.65
2023-01-19T04:37:00,mfh,52.61
2023-01-19T04:38:00,mfh,53.16
2023-01-19T04:39:00,mfh,53.36
2023-01-19T04:40:00,mfh,53.22
2023-01-19T04:41:00,mfh,53.73
2023-01-19T04:42:00,mfh,53.14
2023-01-19T04:43:00,mfh,53.16
2023-01-19T04:44:00,mfh,53.21
2023-01-19T04:45:00,mfh,52.52
2023-01-19T04:46:00,mfh,52.53
2023-01-19T04:47:00,mfh,52.47
2023-01-19T04:48:00,mfh,53.73
2023-01-19T04:49:00,mfh,53.10
2023-01-19T04:50:00,mfh,53.69
2023-01-19T04:51:00,mfh,53.27
2023-01-19T04:52:00,mfh,53.25
2023-01-19T04:53:00,mfh,53.22
2023-01-19T04:54:00,mfh,52.48
2023-01-19T04:55:00,mfh,52.56
2023-01-19T04:56:00,mfh,52.66
2023-01-19T04:57:00,mfh,54.18
2023-01-19T04:58:00,mfh,54.09
2023-01-19T04:59:00,mfh,54.00
2023-01-19T05:00:00,mfh,54.03
2023-01-19T05:01:00,mfh,72.22
2023-01-19T05:02:00,mfh,75.52
2023-01-19T05:03:00,mfh,75.02
2023-01-19T05:04:00,mfh,74.86
2023-01-19T05:05:00,mfh,75.26
2023-01-19T05:06:00,mfh,76.25
2023-01-19T05:07:00,mfh,74.88
2023-01-19T05:08:00,mfh,74.34
2023-01-19T05:09:00,mfh,73.97
2023-01-19T05:10:00,mfh,73.97
2023-01-19T05:11:00,mfh,73.67
2023-01-19T05:12:00,mfh,73.92
2023-01-19T05:13:00,mfh,74.73
2023-01-19T05:14:00,mfh,74.43
2023-01-19T05:15:00,mfh,75.15
2023-01-19T05:16:00,mfh,75.55
2023-01-19T05:17:00,mfh,75.29
2023-01-19T05:18:00,mfh,75.24
2023-01-19T05:19:00,mfh,75.53
2023-01-19T05:20:00,mfh,76.33
2023-01-19T05:21:00,mfh,75.20
2023-01-19T05:22:00,mfh,75.28
2023-01-19T05:23:00,mfh,75.26
2023-01-19T05:24:00,mfh,76.07
2023-01-19T05:25:00,mfh,75.82
2023-01-19T05:26:00,mfh,75.87
2023-01-19T05:27:00,mfh,76.01
2023-01-19T05:28:00,mfh,77.29
2023-01-19T05:29:00,mfh,76.06
2023-01-19T05:30:00,mfh,76.15
2023-01-19T05:31:00,mfh,76.06
2023-01-19T05:32:00,mfh,76.59
2023-01-19T05:33:00,mfh,76.47
2023-01-19T05:34:00,mfh,76.89
2023-01-19T05:35:00,mfh,76.49
2023-01-19T05:36:00,mfh,76.64
2023-01-19T05:37:00,mfh,76.55
2023-01-19T05:38:00,mfh,76.06
2023-01-19T05:39:00,mfh,76.02
2023-01-19T05:40:00,mfh,76.04
2023-01-19T05:41:00,mfh,76.62
2023-01-19T05:42:00,mfh,76.44
2023-01-19T05:43:00,mfh,76.47
2023-01-19T05:44:00,mfh,76.62
2023-01-19T05:45:00,mfh,76.51
2023-01-19T05:46:00,mfh,76.50
2023-01-19T05:47:00,mfh,75.94
2023-01-19T05:48:00,mfh,74.92
2023-01-19T05:49:00,mfh,75.13
2023-01-19T05:50:00,mfh,75.67
2023-01-19T05:51:00,mfh,75.62
2023-01-19T05:52:00,mfh,75.54
2023-01-19T05:53:00,mfh,75.89
2023-01-19T05:54:00,mfh,76.36
2023-01-19T05:55:00,mfh,75.78
2023-01-19T05:56:00,mfh,75.32
2023-01-19T05:57:00,mfh,75.30
2023-01-19T05:58:00,mfh,75.31
2023-01-19T05:59:00,mfh,75.84
2023-01-19T06:00:00,mfh,75.91
2023-01-19T06:01:00,mfh,79.92
2023-01-19T06:02:00,mfh,79.38
2023-01-19T06:03:00,mfh,79.45
2023-01-19T06:04:00,mfh,79.61
2023-01-19T06:05:00,mfh,79.58
2023-01-19T06:06:00,mfh,79.60
2023-01-19T06:07:00,mfh,79.34
2023-01-19T06:08:00,mfh,79.18
2023-01-19T06:09:00,mfh,79.26
2023-01-19T06:10:00,mfh,79.69
2023-01-19T06:11:00,mfh,79.58
2023-01-19T06:12:00,mfh,79.82
2023-01-19T06:13:00,mfh,80.95
2023-01-19T06:14:00,mfh,80.39
2023-01-19T06:15:00,mfh,80.42
2023-01-19T06:16:00,mfh,80.35
2023-01-19T06:17:00,mfh,80.75
2023-01-19T06:18:00,mfh,80.76
2023-01-19T06:19:00,mfh,80.95
2023-01-19T06:20:00,mfh,80.17
2023-01-19T06:21:00,mfh,80.30
2023-01-19T06:22:00,mfh,80.34
2023-01-19T06:23:00,mfh,80.73
2023-01-19T06:24:00,mfh,80.68
2023-01-19T06:25:00,mfh,80.73
2023-01-19T06:26:00,mfh,80.79
2023-01-19T06:27:00,mfh,80.93
2023-01-19T06:28:00,mfh,80.41
2023-01-19T06:29:00,mfh,80.37
2023-01-19T06:30:00,mfh,81.22
2023-01-19T06:31:00,mfh,80.75
2023-01-19T06:32:00,mfh,80.64
2023-01-19T06:33:00,mfh,80.60
2023-01-19T06:34:00,mfh,81.04
2023-01-19T06:35:00,mfh,80.57
2023-01-19T06:36:00,mfh,80.61
2023-01-19T06:37:00,mfh,81.04
2023-01-19T06:38:00,mfh,79.87
2023-01-19T06:39:00,mfh,79.88
2023-01-19T06:40:00,mfh,79.63
2023-01-19T06:41:00,mfh,79.56
2023-01-19T06:42:00,mfh,79.52
2023-01-19T06:43:00,mfh,79.63
2023-01-19T06:44:00,mfh,79.76
2023-01-19T06:45:00,mfh,79.28
2023-01-19T06:46:00,mfh,79.27
2023-01-19T06:47:00,mfh,79.52
2023-01-19T06:48:00,mfh,79.68
2023-01-19T06:49:00,mfh,80.73
2023-01-19T06:50:00,mfh,79.87
2023-01-19T06:51:00,mfh,81.22
2023-01-19T06:52:00,mfh,80.95
2023-01-19T06:53:00,mfh,88.65
2023-01-19T06:54:00,mfh,89.20
2023-01-19T06:55:00,mfh,89.31
2023-01-19T06:56:00,mfh,89.19
2023-01-19T06:57:00,mfh,88.97
2023-01-19T06:58:00,mfh,88.87
2023-01-19T06:59:00,mfh,88.89
2023-01-19T07:00:00,mfh,88.78
2023-01-19T07:01:00,mfh,88.62
2023-01-19T07:02:00,mfh,88.59
2023-01-19T07:03:00,mfh,88.53
2023-01-19T07:04:00,mfh,88.38
2023-01-19T07:05:00,mfh,88.47
2023-01-19T07:06:00,mfh,88.34
2023-01-19T07:07:00,mfh,86.30
2023-01-19T07:08:00,mfh,86.62
2023-01-19T07:09:00,mfh,86.12
2023-01-19T07:10:00,mfh,86.07
2023-01-19T07:11:00,mfh,84.52
2023-01-19T07:12:00,mfh,80.00
2023-01-19T07:13:00,mfh,79.82
2023-01-19T07:14:00,mfh,80.52
2023-01-19T07:15:00,mfh,80.00
2023-01-19T07:16:00,mfh,80.78
2023-01-19T07:17:00,mfh,79.96
2023-01-19T07:18:00,mfh,80.24
2023-01-19T07:19:00,mfh,80.24
2023-01-19T07:20:00,mfh,80.57
2023-01-19T07:21:00,mfh,79.06
2023-01-19T07:22:00,mfh,78.26
2023-01-19T07:23:00,mfh,78.28
2023-01-19T07:24:00,mfh,78.79
2023-01-19T07:25:00,mfh,78.37
2023-01-19T07:26:00,mfh,78.49
2023-01-19T07:27:00,mfh,78.60
2023-01-19T07:28:00,mfh,78.81
2023-01-19T07:29:00,mfh,79.45
2023-01-19T07:30:00,mfh,79.56
2023-01-19T07:31:00,mfh,79.28
2023-01-19T07:32:00,mfh,79.29
2023-01-19T07:33:00,mfh,79.25
2023-01-19T07:34:00,mfh,79.13
2023-01-19T07:35:00,mfh,78.84
2023-01-19T07:36:00,mfh,78.95
2023-01-19T07:37:00,mfh,79.35
2023-01-19T07:38:00,mfh,79.23
2023-01-19T07:39:00,mfh,79.20
2023-01-19T07:40:00,mfh,79.77
2023-01-19T07:41:00,mfh,80.20
2023-01-19T07:42:00,mfh,80.38
2023-01-19T07:43:00,mfh,80.28
2023-01-19T07:44:00,mfh,80.02
2023-01-19T07:45:00,mfh,80.02
2023-01-19T07:46:00,mfh,79.82
2023-01-19T07:47:00,mfh,79.61
2023-01-19T07:48:00,mfh,79.76
2023-01-19T07:49:00,mfh,79.93
2023-01-19T07:50:00,mfh,79.74
2023-01-19T07:51:00,mfh,79.47
2023-01-19T07:52:00,mfh,79.64
2023-01-19T07:53:00,mfh,80.20
2023-01-19T07:54:00,mfh,79.76
2023-01-19T07:55:00,mfh,79.83
2023-01-19T07:56:00,mfh,80.02
2023-01-19T07:57:00,mfh,79.73
2023-01-19T07:58:00,mfh,79.41
2023-01-19T07:59:00,mfh,78.84
2023-01-19T08:00:00,mfh,89.81
2023-01-19T08:01:00,mfh,90.26
2023-01-19T08:02:00,mfh,90.06
2023-01-19T08:03:00,mfh,90.01
2023-01-19T08:04:00,mfh,89.90
2023-01-19T08:05:00,mfh,89.66
2023-01-19T08:06:00,mfh,89.51
2023-01-19T08:07:00,mfh,89.46
2023-01-19T08:08:00,mfh,89.43
2023-01-19T08:09:00,mfh,89.38
2023-01-19T08:10:00,mfh,89.62
2023-01-19T08:11:00,mfh,89.45
2023-01-19T08:12:00,mfh,89.64
2023-01-19T08:13:00,mfh,89.56
2023-01-19T08:14:00,mfh,89.38
2023-01-19T08:15:00,mfh,89.28
2023-01-19T08:16:00,mfh,88.13
2023-01-19T08:17:00,mfh,86.13
2023-01-19T08:18:00,mfh,86.01
2023-01-19T08:19:00,mfh,85.89
2023-01-19T08:20:00,mfh,85.72
2023-01-19T08:21:00,mfh,86.16
2023-01-19T08:22:00,mfh,85.93
2023-01-19T08:23:00,mfh,85.91
2023-01-19T08:24:00,mfh,85.77
2023-01-19T08:25:00,mfh,85.75
2023-01-19T08:26:00,mfh,85.88
2023-01-19T08:27:00,mfh,85.79
2023-01-19T08:28:00,mfh,85.78
2023-01-19T08:29:00,mfh,85.85
2023-01-19T08:30:00,mfh,85.87
2023-01-19T08:31:00,mfh,85.72
2023-01-19T08:32:00,mfh,85.78
2023-01-19T08:33:00,mfh,85.77
2023-01-19T08:34:00,mfh,86.00
2023-01-19T08:35:00,mfh,85.83
2023-01-19T08:36:00,mfh,85.57
2023-01-19T08:37:00,mfh,85.35
2023-01-19T08:38:00,mfh,85.23
2023-01-19T08:39:00,mfh,85.51
2023-01-19T08:40:00,mfh,85.59
2023-01-19T08:41:00,mfh,85.53
2023-01-19T08:42:00,mfh,85.60
2023-01-19T08:43:00,mfh,85.62
2023-01-19T08:44:00,mfh,85.70
2023-01-19T08:45:00,mfh,85.50
2023-01-19T08:46:00,mfh,85.50
2023-01-19T08:47:00,mfh,85.45
2023-01-19T08:48:00,mfh,85.48
2023-01-19T08:49:00,mfh,87.95
2023-01-19T08:50:00,mfh,87.79
2023-01-19T08:51:00,mfh,89.24
2023-01-19T08:52:00,mfh,89.32
2023-01-19T08:53:00,mfh,89.28
2023-01-19T08:54:00,mfh,89.13
2023-01-19T08:55:00,mfh,88.91
2023-01-19T08:56:00,mfh,88.95
2023-01-19T08:57:00,mfh,88.87
2023-01-19T08:58:00,mfh,89.00
2023-01-19T08:59:00,mfh,88.86
2023-01-19T09:00:00,mfh,88.85
2023-01-19T09:01:00,mfh,88.89
2023-01-19T09:02:00,mfh,88.63
2023-01-19T09:03:00,mfh,89.03
2023-01-19T09:04:00,mfh,88.95
2023-01-19T09:05:00,mfh,88.93
2023-01-19T09:06:00,mfh,89.23
2023-01-19T09:07:00,mfh,89.22
2023-01-19T09:08:00,mfh,89.23
2023-01-19T09:09:00,mfh,89.29
2023-01-19T09:10:00,mfh,89.32
2023-01-19T09:11:00,mfh,89.41
2023-01-19T09:12:00,mfh,89.20
2023-01-19T09:13:00,mfh,89.00
2023-01-19T09:14:00,mfh,88.98
2023-01-19T09:15:00,mfh,89.09
2023-01-19T09:16:00,mfh,89.02
2023-01-19T09:17:00,mfh,89.17
2023-01-19T09:18:00,mfh,89.25
2023-01-19T09:19:00,mfh,89.17
2023-01-19T09:20:00,mfh,89.22
2023-01-19T09:21:00,mfh,89.28
2023-01-19T09:22:00,mfh,89.31
2023-01-19T09:23:00,mfh,89.12
2023-01-19T09:24:00,mfh,89.09
2023-01-19T09:25:00,mfh,89.12
2023-01-19T09:26:00,mfh,89.12
2023-01-19T09:27:00,mfh,88.98
2023-01-19T09:28:00,mfh,89.05
2023-01-19T09:29:00,mfh,89.31
2023-01-19T09:30:00,mfh,89.36
2023-01-19T09:31:00,mfh,89.28
2023-01-19T09:32:00,mfh,89.36
2023-01-19T09:33:00,mfh,89.23
2023-01-19T09:34:00,mfh,89.20
2023-01-19T09:35:00,mfh,89.38
2023-01-19T09:36:00,mfh,89.29
2023-01-19T09:37:00,mfh,89.08
2023-01-19T09:38:00,mfh,89.03
2023-01-19T09:39:00,mfh,89.19
2023-01-19T09:40:00,mfh,89.24
2023-01-19T09:41:00,mfh,89.31
2023-01-19T09:42:00,mfh,89.26
2023-01-19T09:43:00,mfh,89.20
2023-01-19T09:44:00,mfh,89.19
2023-01-19T09:45:00,mfh,89.28
2023-01-19T09:46:00,mfh,89.19
2023-01-19T09:47:00,mfh,89.13
2023-01-19T09:48:00,mfh,89.21
2023-01-19T09:49:00,mfh,89.27
2023-01-19T09:50:00,mfh,89.20
2023-01-19T09:51:00,mfh,89.21
2023-01-19T09:52:00,mfh,89.12
2023-01-19T09:53:00,mfh,89.24
2023-01-19T09:54:00,mfh,89.34
2023-01-19T09:55:00,mfh,89.30
2023-01-19T09:56:00,mfh,89.41
2023-01-19T09:57:00,mfh,89.40
2023-01-19T09:58:00,mfh,89.56
2023-01-19T09:59:00,mfh,89.42
2023-01-19T10:00:00,mfh,89.24
2023-01-19T10:01:00,mfh,89.14
2023-01-19T10:02:00,mfh,89.24
2023-01-19T10:03:00,mfh,89.30
2023-01-19T10:04:00,mfh,89.11
2023-01-19T10:05:00,mfh,89.20
2023-01-19T10:06:00,mfh,89.18
2023-01-19T10:07:00,mfh,89.17
2023-01-19T10:08:00,mfh,89.39
2023-01-19T10:09:00,mfh,89.76
2023-01-19T10:10:00,mfh,89.85
2023-01-19T10:11:00,mfh,90.09
2023-01-19T10:12:00,mfh,90.03
2023-01-19T10:13:00,mfh,89.70
2023-01-19T10:14:00,mfh,89.51
2023-01-19T10:15:00,mfh,89.55
2023-01-19T10:16:00,mfh,89.57
2023-01-19T10:17:00,mfh,89.48
2023-01-19T10:18:00,mfh,89.41
2023-01-19T10:19:00,mfh,89.49
2023-01-19T10:20:00,mfh,89.51
2023-01-19T10:21:00,mfh,89.77
2023-01-19T10:22:00,mfh,89.62
2023-01-19T10:23:00,mfh,89.50
2023-01-19T10:24:00,mfh,89.50
2023-01-19T10:25:00,mfh,89.62
2023-01-19T10:26:00,mfh,89.55
2023-01-19T10:27:00,mfh,89.67
2023-01-19T10:28:00,mfh,89.73
2023-01-19T10:29:00,mfh,89.52
2023-01-19T10:30:00,mfh,89.74
2023-01-19T10:31:00,mfh,89.63
2023-01-19T10:32:00,mfh,89.64
2023-01-19T10:33:00,mfh,89.61
2023-01-19T10:34:00,mfh,89.76
2023-01-19T10:35:00,mfh,89.63
2023-01-19T10:36:00,mfh,88.78
2023-01-19T10:37:00,mfh,88.56
2023-01-19T10:38:00,mfh,88.84
2023-01-19T10:39:00,mfh,89.04
2023-01-19T10:40:00,mfh,89.14
2023-01-19T10:41:00,mfh,88.93
2023-01-19T10:42:00,mfh,88.84
2023-01-19T10:43:00,mfh,90.02
2023-01-19T10:44:00,mfh,90.19
2023-01-19T10:45:00,mfh,90.01
2023-01-19T10:46:00,mfh,90.03
2023-01-19T10:47:00,mfh,90.01
2023-01-19T10:48:00,mfh,89.90
2023-01-19T10:49:00,mfh,89.88
2023-01-19T10:50:00,mfh,89.94
2023-01-19T10:51:00,mfh,90.03
2023-01-19T10:52:00,mfh,89.96
2023-01-19T10:53:00,mfh,89.80
2023-01-19T10:54:00,mfh,89.61
2023-01-19T10:55:00,mfh,89.58
2023-01-19T10:56:00,mfh,89.85
2023-01-19T10:57:00,mfh,89.67
2023-01-19T10:58:00,mfh,89.72
2023-01-19T10:59:00,mfh,89.67
2023-01-19T11:00:00,mfh,89.71
2023-01-19T11:01:00,mfh,89.86
2023-01-19T11:02:00,mfh,89.71
2023-01-19T11:03:00,mfh,89.81
2023-01-19T11:04:00,mfh,89.89
2023-01-19T11:05:00,mfh,89.95
2023-01-19T11:06:00,mfh,89.70
2023-01-19T11:07:00,mfh,89.92
2023-01-19T11:08:00,mfh,89.72
2023-01-19T11:09:00,mfh,89.57
2023-01-19T11:10:00,mfh,89.57
2023-01-19T11:11:00,mfh,89.75
2023-01-19T11:12:00,mfh,89.67
2023-01-19T11:13:00,mfh,89.48
2023-01-19T11:14:00,mfh,89.90
2023-01-19T11:15:00,mfh,89.87
2023-01-19T11:16:00,mfh,89.82
2023-01-19T11:17:00,mfh,89.90
2023-01-19T11:18:00,mfh,90.35
2023-01-19T11:19:00,mfh,89.78
2023-01-19T11:20:00,mfh,89.93
2023-01-19T11:21:00,mfh,89.88
2023-01-19T11:22:00,mfh,89.92
2023-01-19T11:23:00,mfh,90.19
2023-01-19T11:24:00,mfh,90.12
2023-01-19T11:25:00,mfh,90.10
2023-01-19T11:26:00,mfh,90.10
2023-01-19T11:27:00,mfh,90.11
2023-01-19T11:28:00,mfh,90.10
2023-01-19T11:29:00,mfh,89.92
2023-01-19T11:30:00,mfh,89.93
2023-01-19T11:31:00,mfh,89.77
2023-01-19T11:32:00,mfh,89.62
2023-01-19T11:33:00,mfh,89.67
2023-01-19T11:34:00,mfh,89.50
2023-01-19T11:35:00,mfh,89.55
2023-01-19T11:36:00,mfh,89.51
2023-01-19T11:37:00,mfh,89.58
2023-01-19T11:38:00,mfh,89.45
2023-01-19T11:39:00,mfh,89.53
2023-01-19T11:40:00,mfh,89.47
2023-01-19T11:41:00,mfh,89.52
2023-01-19T11:42:00,mfh,89.53
2023-01-19T11:43:00,mfh,89.54
2023-01-19T11:44:00,mfh,89.47
2023-01-19T11:45:00,mfh,89.52
2023-01-19T11:46:00,mfh,89.54
2023-01-19T11:47:00,mfh,89.48
2023-01-19T11:48:00,mfh,89.42
2023-01-19T11:49:00,mfh,89.45
2023-01-19T11:50:00,mfh,89.43
2023-01-19T11:51:00,mfh,89.42
2023-01-19T11:52:00,mfh,89.55
2023-01-19T11:53:00,mfh,89.55
2023-01-19T11:54:00,mfh,89.24
2023-01-19T11:55:00,mfh,89.38
2023-01-19T11:56:00,mfh,89.52
2023-01-19T11:57:00,mfh,89.20
2023-01-19T11:58:00,mfh,89.39
2023-01-19T11:59:00,mfh,89.18
2023-01-19T12:00:00,mfh,89.32
2023-01-19T12:01:00,mfh,89.37
2023-01-19T12:02:00,mfh,89.41
2023-01-19T12:03:00,mfh,89.40
2023-01-19T12:04:00,mfh,89.51
2023-01-19T12:05:00,mfh,89.41
2023-01-19T12:06:00,mfh,89.37
2023-01-19T12:07:00,mfh,89.51
2023-01-19T12:08:00,mfh,89.24
2023-01-19T12:09:00,mfh,89.22
2023-01-19T12:10:00,mfh,88.07
2023-01-19T12:11:00,mfh,88.01
2023-01-19T12:12:00,mfh,88.16
2023-01-19T12:13:00,mfh,88.15
2023-01-19T12:14:00,mfh,88.12
2023-01-19T12:15:00,mfh,88.01
2023-01-19T12:16:00,mfh,88.05
2023-01-19T12:17:00,mfh,88.13
2023-01-19T12:18:00,mfh,89.53
2023-01-19T12:19:00,mfh,89.39
2023-01-19T12:20:00,mfh,89.31
2023-01-19T12:21:00,mfh,89.34
2023-01-19T12:22:00,mfh,89.31
2023-01-19T12:23:00,mfh,89.24
2023-01-19T12:24:00,mfh,89.29
2023-01-19T12:25:00,mfh,89.40
2023-01-19T12:26:00,mfh,89.44
2023-01-19T12:27:00,mfh,89.31
2023-01-19T12:28:00,mfh,89.30
2023-01-19T12:29:00,mfh,89.28
2023-01-19T12:30:00,mfh,89.25
2023-01-19T12:31:00,mfh,89.34
2023-01-19T12:32:00,mfh,88.94
2023-01-19T12:33:00,mfh,89.01
2023-01-19T12:34:00,mfh,88.87
2023-01-19T12:35:00,mfh,88.74
2023-01-19T12:36:00,mfh,88.73
2023-01-19T12:37:00,mfh,88.83
2023-01-19T12:38:00,mfh,88.90
2023-01-19T12:39:00,mfh,89.15
2023-01-19T12:40:00,mfh,89.13
2023-01-19T12:41:00,mfh,89.13
2023-01-19T12:42:00,mfh,88.04
2023-01-19T12:43:00,mfh,87.93
2023-01-19T12:44:00,mfh,88.13
2023-01-19T12:45:00,mfh,84.90
2023-01-19T12:46:00,mfh,84.82
2023-01-19T12:47:00,mfh,83.95
2023-01-19T12:48:00,mfh,84.53
2023-01-19T12:49:00,mfh,84.24
2023-01-19T12:50:00,mfh,84.52
2023-01-19T12:51:00,mfh,84.23
2023-01-19T12:52:00,mfh,86.19
2023-01-19T12:53:00,mfh,86.33
2023-01-19T12:54:00,mfh,86.23
2023-01-19T12:55:00,mfh,86.26
2023-01-19T12:56:00,mfh,86.14
2023-01-19T12:57:00,mfh,86.14
2023-01-19T12:58:00,mfh,86.26
2023-01-19T12:59:00,mfh,86.32
2023-01-19T13:00:00,mfh,86.08
2023-01-19T13:01:00,mfh,88.51
2023-01-19T13:02:00,mfh,88.57
2023-01-19T13:03:00,mfh,88.67
2023-01-19T13:04:00,mfh,89.92
2023-01-19T13:05:00,mfh,89.94
2023-01-19T13:06:00,mfh,89.89
2023-01-19T13:07:00,mfh,89.98
2023-01-19T13:08:00,mfh,89.71
2023-01-19T13:09:00,mfh,89.76
2023-01-19T13:10:00,mfh,89.59
2023-01-19T13:11:00,mfh,89.55
2023-01-19T13:12:00,mfh,89.56
2023-01-19T13:13:00,mfh,89.50
2023-01-19T13:14:00,mfh,89.42
2023-01-19T13:15:00,mfh,89.40
2023-01-19T13:16:00,mfh,89.47
2023-01-19T13:17:00,mfh,89.44
2023-01-19T13:18:00,mfh,89.54